Showing default

CENTISPACE-1 S16, 62585

Orbit data source: Space-Track

CENTISPACE-1 S16, 62585 is a payload satellite owned by Centispace (CN) in LEO that was launched on Mon, 13 Jan 2025 UTC via a JIELONG-3 launch vehicle from the Yellow Sea Launch Area, China (YSLA). Payload-class satellites include a variety of spacecraft equipped with specific instruments for various scientific and technological missions. These include communications satellites like Starlink; space stations such as the ISS; scientific satellites like the Hubble; Earth observation satellites from companies like Planet Labs, Umbra, and HawkEye 360; GPS; miniature CubeSats for education and research; and military/defense satellites.

Loading next visibility...
Identifier
62585, 2025-007L
Orbit
LEO
Country
Flag of CNCN / PRC
Related business
Manufacturer
HITSAT
Mission
Operational Commercial Nav/Com
Bus & Motor
WK01H, Unknown motor
Mass
140 kg wet, 140 kg dry
Launch date (UTC)
2025-01-13 (8 months ago)
Launch vehicle
JIELONG-3
Launch site
Yellow Sea Launch Area, China (YSLA)
Object type
Payload
Rocket body
Debris
Shape & HBR
Box + 2 Pan, 1.0 m
Radar Cross Section
0.833 m², Large (>1 m²)

Expand to show TLE details & history
Last TLE update: 22 hours ago

TLE from 22 hours ago
0 CENTISPACE-1 S16
1 62585U 25007L   25257.51409748  .00000484  00000-0  16569-3 0  9995
2 62585  54.9800 219.1428 0009294 289.9753  70.0234 14.50656275 35946
Epoch: 2025-09-14T12:20Z
TLE epoch observation values (Epoch: 2025-09-14T12:20:18.022Z)
Latitude
-0.00002°
Longitude
40.33568°
Altitude
722.312 km
Speed
7.496 km/s
True Right ascension
14h 36m 34s
True Declination
0° 00' 00"
Sunlit
Object was in daylight at epoch
Visualization orbit readout
Latitude
Unknown
Longitude
Unknown
Altitude
Unknown
Speed
Unknown
Apparent Right ascension
Unknown
Apparent Declination
Unknown
Sunlit
N/A
Visualization observer readout
Local Sidereal Time
03:08:50
Azimuth
Unknown
Elevation
Unknown
Doppler factor
Unknown
Orbital elements
Apogee altitude
730.073 km
Perigee altitude
716.873 km
Semi-major axis
7,101.61 km
Eccentricity
0.00093
Inclination
54.98°
RAAN
219.1428°
Arg. of periapsis
289.9753°
True anomaly
70.12353°
Mean anomaly
70.0234°
Eccentric anomaly
70.07346°
Mean motion
3.62667 °/min
Orbital period
99.26 mins
BSTAR
0.00016569
Loading maneuver chart data...
Computing Atmospheric mass density...
Loading historical data...
Loading historical data...
Loading historical data...
Loading historical data...
Loading historical data...
Loading historical data...
Loading historical data...

Documentation

Showing up to 5 results
|